DECAM EDDP-EDDC

Flight info

Callsign DECAM
Flight time N/A
Altitude 7000
Route DRN2E DRN
Aircraft SR22/L-SDGRY/S

Departure

Time 2026-05-06 17:55
Airport Leipzig/Halle Airport (EDDP)

Arrival

Time N/A
Airport Dresden Airport (EDDC)
Time Latitude Longitude Altitude Speed Heading
2026-05-06 17:39 51.41784 12.22544 437 ft 0 kts 195°
2026-05-06 17:51 51.41776 12.22540 437 ft 5 kts 195°
2026-05-06 17:51 51.41715 12.22562 435 ft 15 kts 106°
2026-05-06 17:52 51.41683 12.22750 446 ft 20 kts 108°
2026-05-06 17:52 51.41644 12.22977 453 ft 23 kts 105°
2026-05-06 17:52 51.41594 12.23211 460 ft 19 kts 142°
2026-05-06 17:52 51.41430 12.23243 461 ft 25 kts 175°
2026-05-06 17:53 51.41392 12.23248 463 ft 0 kts 174°
2026-05-06 17:54 51.41323 12.23256 465 ft 16 kts 174°
2026-05-06 17:55 51.41297 12.23362 465 ft 31 kts 86°
2026-05-06 17:55 51.41337 12.24090 511 ft 87 kts 86°
2026-05-06 17:55 51.41328 12.25110 825 ft 98 kts 83°
2026-05-06 17:55 51.41429 12.26191 1221 ft 99 kts 75°
2026-05-06 17:56 51.41506 12.27372 1498 ft 109 kts 83°
2026-05-06 17:56 51.41570 12.28563 1898 ft 108 kts 82°
2026-05-06 17:56 51.41625 12.29769 2259 ft 111 kts 85°
2026-05-06 17:56 51.41681 12.31015 2609 ft 114 kts 86°
2026-05-06 17:57 51.41738 12.32309 2939 ft 120 kts 86°
2026-05-06 17:57 51.41800 12.33683 3260 ft 125 kts 86°
2026-05-06 17:57 51.41862 12.35095 3604 ft 128 kts 86°
2026-05-06 17:57 51.41928 12.36538 3939 ft 132 kts 87°
2026-05-06 17:58 51.41993 12.38022 4280 ft 135 kts 87°
2026-05-06 17:58 51.42064 12.39557 4628 ft 139 kts 87°
2026-05-06 17:58 51.42132 12.41097 5010 ft 139 kts 86°
2026-05-06 17:58 51.42202 12.42646 5376 ft 139 kts 86°
2026-05-06 17:59 51.42273 12.44204 5752 ft 140 kts 86°
2026-05-06 17:59 51.42343 12.45773 6114 ft 142 kts 86°
2026-05-06 17:59 51.42415 12.47361 6477 ft 143 kts 86°
2026-05-06 17:59 51.42486 12.48966 6769 ft 150 kts 87°
2026-05-06 18:00 51.42561 12.50763 6789 ft 170 kts 88°
2026-05-06 18:00 51.42638 12.52732 6788 ft 183 kts 87°
2026-05-06 18:00 51.42725 12.54781 6787 ft 190 kts 87°
2026-05-06 18:00 51.42606 12.56879 6775 ft 190 kts 110°
2026-05-06 18:01 51.41995 12.58748 6779 ft 189 kts 126°
2026-05-06 18:01 51.41280 12.60527 6783 ft 190 kts 126°
2026-05-06 18:01 51.40581 12.62301 6778 ft 187 kts 126°
2026-05-06 18:01 51.39889 12.64059 6781 ft 185 kts 126°
2026-05-06 18:02 51.39198 12.65802 6781 ft 185 kts 126°
2026-05-06 18:02 51.38513 12.67541 6779 ft 184 kts 126°
2026-05-06 18:02 51.37828 12.69269 6781 ft 184 kts 126°
2026-05-06 18:02 51.37153 12.70972 6780 ft 183 kts 126°
2026-05-06 18:03 51.36467 12.72696 6775 ft 183 kts 126°
2026-05-06 18:03 51.35783 12.74421 6772 ft 183 kts 126°
2026-05-06 18:03 51.35063 12.76102 6766 ft 183 kts 129°
2026-05-06 18:03 51.34328 12.77762 6770 ft 183 kts 129°
2026-05-06 18:04 51.33597 12.79435 6773 ft 183 kts 129°
2026-05-06 18:04 51.32860 12.81103 6769 ft 183 kts 129°
2026-05-06 18:04 51.32124 12.82767 6770 ft 183 kts 129°
2026-05-06 18:04 51.31393 12.84431 6771 ft 183 kts 129°
2026-05-06 18:05 51.30658 12.86081 6764 ft 182 kts 129°
2026-05-06 18:05 51.29919 12.87728 6766 ft 183 kts 129°
2026-05-06 18:05 51.29182 12.89378 6763 ft 182 kts 129°
2026-05-06 18:05 51.28447 12.91025 6764 ft 182 kts 129°
2026-05-06 18:06 51.27707 12.92676 6763 ft 183 kts 129°
2026-05-06 18:06 51.26969 12.94336 6762 ft 183 kts 129°
2026-05-06 18:06 51.26238 12.95974 6761 ft 183 kts 129°
2026-05-06 18:06 51.25500 12.97634 6756 ft 182 kts 129°
2026-05-06 18:07 51.24768 12.99279 6760 ft 182 kts 129°
2026-05-06 18:07 51.24035 13.00929 6760 ft 182 kts 129°
2026-05-06 18:07 51.23304 13.02575 6759 ft 181 kts 129°
2026-05-06 18:07 51.22574 13.04212 6757 ft 181 kts 129°
2026-05-06 18:08 51.21846 13.05847 6750 ft 180 kts 129°
2026-05-06 18:08 51.21364 13.06927 6753 ft 180 kts 129°
2026-05-06 18:08 51.20401 13.09083 6754 ft 180 kts 129°
2026-05-06 18:08 51.19670 13.10714 6753 ft 181 kts 129°
2026-05-06 18:09 51.18939 13.12347 6758 ft 181 kts 129°
2026-05-06 18:09 51.18210 13.13988 6758 ft 181 kts 129°
2026-05-06 18:09 51.17479 13.15627 6756 ft 181 kts 129°
2026-05-06 18:09 51.16751 13.17263 6751 ft 181 kts 129°
2026-05-06 18:10 51.16266 13.18348 6757 ft 181 kts 129°
2026-05-06 18:10 51.15535 13.19979 6757 ft 180 kts 129°
2026-05-06 18:10 51.14804 13.21604 6757 ft 180 kts 129°
2026-05-06 18:10 51.14074 13.23234 6752 ft 180 kts 129°
2026-05-06 18:11 51.13344 13.24860 6755 ft 180 kts 129°
2026-05-06 18:11 51.12615 13.26494 6755 ft 181 kts 129°
2026-05-06 18:11 51.11886 13.28136 6758 ft 181 kts 129°
2026-05-06 18:11 51.11165 13.29758 6760 ft 182 kts 129°
2026-05-06 18:12 51.10431 13.31395 6762 ft 181 kts 129°
2026-05-06 18:12 51.09700 13.33030 6762 ft 181 kts 129°
2026-05-06 18:12 51.08967 13.34663 6763 ft 181 kts 129°
2026-05-06 18:12 51.08212 13.36316 6329 ft 190 kts 130°
2026-05-06 18:13 51.07426 13.38018 5993 ft 189 kts 130°
2026-05-06 18:13 51.06649 13.39691 5649 ft 188 kts 130°
2026-05-06 18:13 51.05874 13.41350 5300 ft 186 kts 129°
2026-05-06 18:13 51.05094 13.42997 4999 ft 184 kts 130°
2026-05-06 18:14 51.04348 13.44573 4857 ft 177 kts 129°
2026-05-06 18:14 51.03627 13.46108 4639 ft 175 kts 130°
2026-05-06 18:14 51.02902 13.47664 4401 ft 175 kts 129°
2026-05-06 18:14 51.02165 13.49201 4175 ft 174 kts 129°
2026-05-06 18:15 51.01494 13.50789 3953 ft 176 kts 112°
2026-05-06 18:15 51.01487 13.52696 3714 ft 175 kts 76°
2026-05-06 18:15 51.01806 13.54550 3511 ft 173 kts 75°
2026-05-06 18:15 51.02112 13.56347 3403 ft 167 kts 74°
2026-05-06 18:16 51.02403 13.58131 3232 ft 165 kts 75°
2026-05-06 18:16 51.02686 13.59893 3082 ft 164 kts 75°
2026-05-06 18:16 51.02964 13.61623 2998 ft 160 kts 73°
2026-05-06 18:16 51.03572 13.63090 2997 ft 163 kts 41°
2026-05-06 18:17 51.04412 13.64340 2867 ft 173 kts 41°
2026-05-06 18:17 51.05308 13.65629 2641 ft 172 kts 41°
2026-05-06 18:17 51.06191 13.66865 2420 ft 167 kts 39°
2026-05-06 18:17 51.07066 13.68043 2189 ft 163 kts 39°
2026-05-06 18:18 51.07916 13.69213 1972 ft 159 kts 39°
2026-05-06 18:18 51.08725 13.70319 1710 ft 146 kts 40°
2026-05-06 18:18 51.09440 13.71330 1576 ft 127 kts 40°
2026-05-06 18:18 51.10034 13.72144 1464 ft 105 kts 39°
2026-05-06 18:19 51.10566 13.72843 1287 ft 94 kts 37°
2026-05-06 18:19 51.11038 13.73487 1155 ft 85 kts 36°
2026-05-06 18:19 51.11476 13.74101 1057 ft 86 kts 38°
2026-05-06 18:19 51.11927 13.74705 957 ft 84 kts 41°
2026-05-06 18:20 51.12373 13.75333 838 ft 87 kts 39°
2026-05-06 18:20 51.12815 13.75944 756 ft 79 kts 39°
2026-05-06 18:20 51.13200 13.76470 742 ft 77 kts 41°
2026-05-06 18:20 51.13680 13.77127 924 ft 102 kts 39°
2026-05-06 18:21 51.14274 13.77801 1260 ft 107 kts 12°
2026-05-06 18:21 51.14986 13.77329 1498 ft 125 kts 318°
2026-05-06 18:21 51.15600 13.76246 1709 ft 136 kts 314°
2026-05-06 18:21 51.16288 13.75162 1921 ft 140 kts 331°
2026-05-06 18:22 51.17226 13.74682 2055 ft 148 kts 346°
2026-05-06 18:22 51.18264 13.74255 2121 ft 156 kts 348°
2026-05-06 18:22 51.19364 13.73941 2151 ft 164 kts 352°
2026-05-06 18:22 51.20490 13.73616 2130 ft 166 kts 349°
2026-05-06 18:23 51.21615 13.73148 2066 ft 169 kts 346°
2026-05-06 18:23 51.22771 13.72750 2008 ft 171 kts 347°